Avoca, PA

12:24 AM EST on November 12, 2019 (GMT -0500)
Wilkes-Barre-Scranton International

Weather History for KAVP - July, 2019

Change the Weather History Date:

Monday, July 29, 2019

  Actual Average Record
Temperature  
Mean Temperature 77 °F 71 °F  
Max Temperature 90 °F 82 °F 96 °F (1940)
Min Temperature 64 °F 61 °F 51 °F (1989)
Degree Days  
Heating Degree Days 0 0  
Month to date heating degree days 0 0  
Since 1 June heating degree days 32 54  
Since 1 July heating degree days 0 0  
Cooling Degree Days 12 7  
Month to date cooling degree days 323 198  
Year to date cooling degree days 488 352  
Since 1 June cooling degree days 438 315  
Growing Degree Days 27 (Base 50)    
Moisture  
Dew Point 67 °F    
Average Humidity 70    
Maximum Humidity 93    
Minimum Humidity 47    
Precipitation  
Precipitation 0.00 in 0.13 in 2.04 in (1901)
Month to date precipitation 6.92 3.52  
Year to date precipitation 31.62 21.35  
Sea Level Pressure  
Sea Level Pressure 29.99 in    
Wind  
Wind Speed 5 mph (SW)    
Max Wind Speed 17 mph    
Max Gust Speed 23 mph    
Visibility 9 miles    
Events Thunderstorm    
T = Trace of Precipitation, MM = Missing Value Source: NWS Daily Summary

Daily Weather History Graph

Daily Weather History Graph

Search for Another Location

Airport or City:

Astronomy

Jul. 29, 2019 Rise Set
Actual Time 5:54 AM EDT 8:23 PM EDT
Civil Twilight 5:23 AM EDT 8:54 PM EDT
Nautical Twilight 4:44 AM EDT 9:33 PM EDT
Astronomical Twilight 4:00 AM EDT 10:17 PM EDT
Moon 3:04 AM EDT (7/29) 6:25 PM EDT (7/29)
Length of Visible Light 15h 31m
Length of Day
14h 28m
Waning Crescent, 8% of the Moon is Illuminated
Jul 29
Waning Crescent
Jul 31
New
Aug 7
First Quarter
Aug 15
Full
Aug 23
Last Quarter

Hourly Weather History & Observations

Time (EDT) Temp. Heat Index Dew Point Humidity Pressure Visibility Wind Dir Wind Speed Gust Speed Precip Events Conditions
8:42 AM 73.0 °F - 68.0 °F 84% 30.06 in 6.0 mi SSW 4.6 mph - N/A   Haze
8:54 AM 75.0 °F - 66.9 °F 76% 30.04 in 7.0 mi SW 6.9 mph - N/A   Clear
9:54 AM 79.0 °F - 66.9 °F 66% 30.03 in 8.0 mi WSW 8.1 mph - N/A   Clear
10:54 AM 82.0 °F 84.9 °F 68.0 °F 62% 30.02 in 9.0 mi SW 10.4 mph - N/A   Clear
11:54 AM 84.9 °F 88.8 °F 69.1 °F 59% 30.01 in 9.0 mi West 8.1 mph - N/A   Clear
12:54 PM 84.9 °F 88.2 °F 68.0 °F 57% 30.00 in 9.0 mi Variable 3.5 mph - N/A   Scattered Clouds
1:49 PM 89.6 °F 92.2 °F 66.2 °F 46% 30.02 in 10.0 mi WSW 13.8 mph 21.9 mph N/A Thunderstorm Partly Cloudy
1:54 PM 89.1 °F 92.1 °F 66.9 °F 48% 29.98 in 10.0 mi SW 12.7 mph 21.9 mph N/A Thunderstorm Partly Cloudy
2:04 PM 88.0 °F 89.6 °F 64.9 °F 46% 30.01 in 10.0 mi SW 12.7 mph 20.7 mph N/A   Clear
2:54 PM 90.0 °F 92.4 °F 66.0 °F 45% 29.97 in 10.0 mi WSW 12.7 mph 21.9 mph N/A   Partly Cloudy
3:54 PM 89.1 °F 91.3 °F 66.0 °F 46% 29.96 in 10.0 mi SW 11.5 mph 17.3 mph N/A   Partly Cloudy
4:54 PM 86.0 °F 88.2 °F 66.0 °F 51% 29.95 in 9.0 mi SW 10.4 mph - N/A   Clear
5:54 PM 87.1 °F 90.6 °F 68.0 °F 53% 29.94 in 10.0 mi SSW 9.2 mph - N/A   Clear
6:54 PM 87.1 °F 89.9 °F 66.9 °F 51% 29.95 in 9.0 mi SW 9.2 mph - N/A   Clear
7:54 PM 84.0 °F 86.5 °F 66.9 °F 56% 29.96 in 9.0 mi SSW 4.6 mph - N/A   Clear
8:13 PM 82.9 °F 85.4 °F 66.9 °F 58% 29.99 in 8.0 mi Calm Calm - N/A   Clear
8:54 PM 80.1 °F 82.3 °F 66.9 °F 64% 29.96 in 9.0 mi SSW 3.5 mph - N/A   Clear
9:54 PM 80.1 °F 82.3 °F 66.9 °F 64% 29.98 in 9.0 mi WSW 3.5 mph - N/A   Clear
10:54 PM 75.9 °F - 68.0 °F 76% 29.98 in 9.0 mi Calm Calm - N/A   Clear
11:54 PM 73.0 °F - 66.9 °F 81% 29.98 in 9.0 mi South 3.5 mph - N/A   Clear